Albany, GA

4:09 PM EDT on April 19, 2018 (GMT -0400)
Southwest Georgia Regional

Weather History for KABY - April, 2014

Change the Weather History Date:

Friday, April 18, 2014

  Actual Average Record
Temperature  
Mean Temperature 58 °F 67 °F  
Max Temperature 62 °F 80 °F 90 °F (2002)
Min Temperature 54 °F 54 °F 37 °F (1999)
Degree Days  
Heating Degree Days 7 2  
Month to date heating degree days 57 53  
Since 1 July heating degree days 1921 1822  
Cooling Degree Days 0 4  
Month to date cooling degree days 36 47  
Year to date cooling degree days 43 85  
Growing Degree Days 8 (Base 50)    
Moisture  
Dew Point 53 °F    
Average Humidity 78    
Maximum Humidity 100    
Minimum Humidity 56    
Precipitation  
Precipitation 1.24 in 0.12 in 1.24 in (2014)
Month to date precipitation 2.52  
Year to date precipitation 16.55  
Sea Level Pressure  
Sea Level Pressure 30.10 in    
Wind  
Wind Speed 11 mph (NE)    
Max Wind Speed 22 mph    
Max Gust Speed 28 mph    
Visibility 4 miles    
Events Rain    
T = Trace of Precipitation, MM = Missing Value Source: NWS Daily Summary

Daily Weather History Graph

Daily Weather History Graph

Search for Another Location

Airport or City:

Astronomy

Apr. 18, 2014 Rise Set
Actual Time 7:04 AM EDT 8:07 PM EDT
Civil Twilight 6:39 AM EDT 8:32 PM EDT
Nautical Twilight 6:10 AM EDT 9:02 PM EDT
Astronomical Twilight 5:39 AM EDT 9:33 PM EDT
Moon 11:43 PM EDT (4/18) 9:34 AM EDT (4/18)
Length of Visible Light 13h 52m
Length of Day
13h 02m
Waning Gibbous, 87% of the Moon is Illuminated
Apr 18
Waning Gibbous
Apr 22
Last Quarter
Apr 29
New
May 6
First Quarter
May 14
Full

Hourly Weather History & Observations

Time (EDT) Temp. Dew Point Humidity Pressure Visibility Wind Dir Wind Speed Gust Speed Precip Events Conditions
12:53 AM 62.1 °F 46.0 °F 56% 30.25 in 10.0 mi East 12.7 mph - 0.00 in   Overcast
1:53 AM 61.0 °F 46.9 °F 60% 30.24 in 10.0 mi East 11.5 mph - N/A   Scattered Clouds
2:53 AM 61.0 °F 46.9 °F 60% 30.23 in 10.0 mi East 9.2 mph - N/A   Overcast
3:53 AM 55.9 °F 52.0 °F 87% 30.23 in 5.0 mi ENE 5.8 mph - 0.04 in Rain Rain
4:12 AM 55.4 °F 51.8 °F 88% 30.24 in 2.5 mi ENE 3.5 mph - 0.06 in Rain Heavy Rain
4:19 AM 55.4 °F 53.6 °F 94% 30.23 in 2.5 mi NE 6.9 mph - 0.10 in Rain Heavy Rain
4:34 AM 55.4 °F 53.6 °F 94% 30.22 in 4.0 mi NE 6.9 mph - 0.13 in Rain Rain
4:53 AM 55.0 °F 53.1 °F 93% 30.21 in 4.0 mi NE 8.1 mph - 0.19 in Rain Rain
5:53 AM 55.0 °F 53.1 °F 93% 30.19 in 4.0 mi NE 11.5 mph - 0.13 in Rain Rain
6:53 AM 55.0 °F 53.1 °F 93% 30.17 in 5.0 mi NE 12.7 mph 20.7 mph 0.08 in Rain Rain
7:36 AM 55.4 °F 53.6 °F 94% 30.17 in 5.0 mi NE 12.7 mph 18.4 mph N/A Rain Rain
7:53 AM 55.0 °F 53.1 °F 93% 30.22 in 4.0 mi ENE 6.9 mph - N/A Rain Light Rain
8:53 AM 55.0 °F 53.1 °F 93% 30.23 in 2.0 mi NE 9.2 mph - 0.16 in Rain Rain
9:53 AM 55.0 °F 54.0 °F 96% 30.20 in 1.8 mi NE 16.1 mph 20.7 mph 0.15 in Rain Heavy Rain
10:53 AM 55.0 °F 53.1 °F 93% 30.16 in 2.0 mi NE 16.1 mph 26.5 mph 0.16 in Rain Rain
11:53 AM 55.0 °F 54.0 °F 96% 30.13 in 1.8 mi NE 17.3 mph 25.3 mph N/A Rain Heavy Rain
12:31 PM 55.4 °F 53.6 °F 94% 30.15 in 2.5 mi NE 8.1 mph 16.1 mph 0.15 in Rain Rain
12:44 PM 55.4 °F 55.4 °F 100% 30.13 in 1.5 mi NE 11.5 mph - 0.21 in Rain Heavy Rain
12:53 PM 55.9 °F 55.0 °F 97% 30.13 in 2.5 mi ENE 12.7 mph - 0.22 in Rain Rain
1:53 PM 55.9 °F 55.0 °F 97% 30.07 in 3.0 mi ENE 18.4 mph 26.5 mph 0.11 in Rain Light Rain
2:53 PM 55.9 °F 55.0 °F 97% 30.05 in 3.0 mi NE 17.3 mph 27.6 mph N/A Rain Light Rain
3:53 PM 55.9 °F 55.0 °F 97% 30.03 in 2.0 mi NE 11.5 mph - N/A Rain Heavy Rain
4:00 PM 55.4 °F 53.6 °F 94% 30.04 in 2.0 mi Variable 3.5 mph 19.6 mph N/A Rain Rain
5:53 PM 55.9 °F 55.0 °F 97% 29.99 in 2.0 mi ENE 10.4 mph - N/A Rain Light Rain
6:53 PM 55.9 °F 54.0 °F 93% 29.99 in 5.0 mi NNE 8.1 mph - N/A Rain Light Rain
8:17 PM 55.4 °F 53.6 °F 94% 30.00 in 1.8 mi North 8.1 mph - N/A Rain Light Rain
8:21 PM 55.4 °F 53.6 °F 94% 30.00 in 2.5 mi North 8.1 mph - N/A Rain Rain
8:27 PM 55.4 °F 53.6 °F 94% 30.00 in 3.0 mi North 5.8 mph - N/A Rain Light Rain
8:39 PM 55.4 °F 53.6 °F 94% 30.00 in 3.0 mi North 9.2 mph - N/A Rain Light Rain
8:53 PM 55.0 °F 54.0 °F 96% 30.00 in 5.0 mi North 6.9 mph - N/A Rain Light Rain
9:00 PM 55.4 °F 53.6 °F 94% 30.01 in 4.0 mi North 6.9 mph - N/A Rain Light Rain
9:17 PM 55.4 °F 53.6 °F 94% 30.01 in 2.0 mi NNE 6.9 mph 16.1 mph N/A Rain Heavy Rain
9:29 PM 55.4 °F 53.6 °F 94% 30.01 in 4.0 mi North 5.8 mph - N/A Rain Light Rain
9:53 PM 55.0 °F 54.0 °F 96% 30.01 in 2.5 mi NNE 9.2 mph - N/A Rain Heavy Rain
10:01 PM 55.4 °F 53.6 °F 94% 30.01 in 1.2 mi NNE 6.9 mph - N/A Rain Heavy Rain
10:12 PM 55.4 °F 53.6 °F 94% 30.01 in 1.5 mi North 10.4 mph 17.3 mph N/A Rain Heavy Rain
10:26 PM 55.4 °F 53.6 °F 94% 30.01 in 3.0 mi NNE 9.2 mph 16.1 mph N/A Rain Rain
10:40 PM 55.4 °F 53.6 °F 94% 30.01 in 8.0 mi NNE 9.2 mph - N/A Rain Light Rain
11:14 PM 55.4 °F 53.6 °F 94% 30.00 in 7.0 mi Variable 6.9 mph - N/A Rain Light Rain
11:53 PM 54.0 °F 52.0 °F 93% 30.01 in 8.0 mi NNE 11.5 mph 18.4 mph N/A Rain Light Rain